COSMOS 1275 DEB, 17639

Orbit data source: Space-Track

COSMOS 1275 DEB, 17639 is space debris in LEO originally from a launch on Thu, 04 Jun 1981 UTC launched from the Plesetsk Missile And Space Complex (PKMTR). Debris objects in space refer to the collection of defunct objects orbiting the Earth. Examples of debris include non-operational satellites, rocket bodies, and fragments generated from explosions, collisions, or faulty payload assembly.

Loading next visibility...
Identifier
17639, 1981-053LJ
Orbit
LEO
Country
Flag of CISCIS
Related business
Manufacturer
Unknown
Mission
Spacecraft
Bus & Motor
Unknown
Mass
Unknown
Launch date (UTC)
1981-06-04 (45 years ago)
Launch vehicle
Unknown
Launch site
Plesetsk Missile And Space Complex (PKMTR)
Object type
Payload
Rocket body
Debris
Shape & HBR
Unknown shape, 0.1 m
Radar Cross Section
Small (<0.1 m²)

Expand to show TLE details & history
Last TLE update: 18 hours ago

TLE from 18 hours ago
0 COSMOS 1275 DEB
1 17639U 81053LJ  26048.40946700  .00001401  00000-0  16324-2 0  9997
2 17639  82.9980 202.8100 0155907 139.3681 254.9443 13.62929592 14650
Epoch: 2026-02-17T09:49Z
TLE epoch observation values (Epoch: 2026-02-17T09:49:37.948Z)
Latitude
32.38122°
Longitude
-87.54385°
Altitude
1,060.871 km
Speed
7.309 km/s
True Right ascension
13h 49m 00s
True Declination
32° 13' 56"
Sunlit
Object was in full shadow at epoch
Visualization orbit readout
Latitude
Unknown
Longitude
Unknown
Altitude
Unknown
Speed
Unknown
Apparent Right ascension
Unknown
Apparent Declination
Unknown
Sunlit
N/A
Visualization observer readout
Local Sidereal Time
06:41:31
Azimuth
Unknown
Elevation
Unknown
Doppler factor
Unknown
Orbital elements
Apogee altitude
1,137.604 km
Perigee altitude
906.85 km
Semi-major axis
7,400.364 km
Eccentricity
0.01559
Inclination
82.998°
RAAN
202.81°
Arg. of periapsis
139.3681°
True anomaly
253.22801°
Mean anomaly
254.9443°
Eccentric anomaly
254.08526°
Mean motion
3.40929 °/min
Orbital period
105.59 mins
BSTAR
0.0016324
Loading maneuver chart data...
Computing Atmospheric mass density...
Loading historical data...
Loading historical data...
Loading historical data...
Loading historical data...
Loading historical data...
Loading historical data...
Loading historical data...

Documentation

Showing up to 5 results
|